Terminal Aerodrome Forecast
Issued by NWS Houston/Galveston TX

Home | Current Version | Previous Version | Text Only | Print | Product List | Glossary On
Versions: 1 2 3 4 5 6 7 8 9 10 11 12 13 14 15 16 17 18 19 20 21 22 23 24 25 26 27 28 29 30 31 32 33 34 35 36 37 38 39 40 41 42 43 44 45 46 47 48 49 50
000
FTUS44 KHGX 222052 AAA
TAFHOU
TAF AMD
KHOU 222052Z 2221/2318 17014KT P6SM FEW060
     FM230100 16005KT P6SM SKC
     FM230900 VRB03KT 6SM BR FEW015
     FM231100 15005KT 4SM BR BKN015
     FM231500 16012KT P6SM BKN025=

USA.gov is the U.S. government's official web portal to all federal, state and local government web resources and services.